Regional Weather Roundup
Issued by NWS

Home | Current Version | Previous Version | Text Only | Print | Product List | Glossary Off
Versions: 1 2 3 4 5 6 7 8 9 10 11 12 13 14 15 16 17 18 19 20 21 22 23 24 25 26 27

000
ASUS45 KPSR 201010
RWRAZ

ARIZONA HOURLY REGIONAL WEATHER ROUNDUP
NATIONAL WEATHER SERVICE PHOENIX AZ
300 AM MST THU JUL 20 2017

NOTE: FAIR INDICATES FEW OR NO CLOUDS BELOW 12,000 FEET WITH NO
SIGNIFICANT WEATHER AND/OR OBSTRUCTIONS TO VISIBILITY.

AZZ001>003-036-201100-
NORTHWEST ARIZONA

CITY           SKY/WX    TMP DP  RH WIND       PRES   REMARKS
BULLHEAD CITY  PTCLDY    86  72  62 N5        29.86S
KINGMAN        CLEAR     73  65  75 SE14      30.08R
$$

AZZ004>008-015-016-018-201100-
NORTH CENTRAL ARIZONA

CITY           SKY/WX    TMP DP  RH WIND       PRES   REMARKS
GRAND CANYON   CLEAR     55  54  96 CALM      30.32S
WILLIAMS       MOCLDY    59  52  77 S7        30.33S
PRESCOTT       PTCLDY    65  59  81 S7        30.22S
FLAGSTAFF      CLOUDY    56  54  93 E3        30.36S
PAYSON         LGT RAIN  64  63  94 N3        30.27F
PAGE           CLEAR     75  57  53 S3        30.13S
$$

AZZ009>014-017-201100-
NORTHEAST ARIZONA

CITY           SKY/WX    TMP DP  RH WIND       PRES   REMARKS
WINSLOW        PTCLDY    70  61  73 SW10      30.19S
SAINT JOHNS    PTCLDY    66  57  72 CALM      30.25S
WINDOW ROCK    PTCLDY    60  50  69 CALM      30.33F
SHOW LOW       PTCLDY    57  55  94 S8        30.33R
$$

AZZ540-542>544-546-548-201100-
GREATER PHOENIX AREA

CITY           SKY/WX    TMP DP  RH WIND       PRES   REMARKS
PHOENIX        MOCLDY    88  65  46 SE5       29.91F
BUCKEYE        CLOUDY    86  66  51 E12       29.92S
LUKE AFB       MOCLDY    88  68  52 SE9       29.92S
DEER VALLEY    PTCLDY    86  67  52 E8        29.95S
SCOTTSDALE     PTCLDY    86  66  51 CALM      29.96F
MESA-GATEWAY   PTCLDY    82  63  51 S5        29.95S
$$

AZZ539-553-201100-
SOUTHWEST MARICOPA COUNTY AND PINAL COUNTY

CITY           SKY/WX    TMP DP  RH WIND       PRES   REMARKS
CASA GRANDE    CLEAR     83  68  60 CALM      29.95F
$$

AZZ503-504-507>509-201100-
SOUTHEAST ARIZONA

CITY           SKY/WX    TMP DP  RH WIND       PRES   REMARKS
TUCSON         PTCLDY    77  65  66 SE10      30.05R
DAVIS-MONTHAN  CLEAR     75  65  70 SE7       30.04R
NOGALES        MOCLDY    71  63  75 CALM      30.13F
SIERRA VISTA   PTCLDY    66  64  91 CALM      30.19S
DOUGLAS        MOCLDY    66  63  90 CALM      30.16S
SAFFORD        MOCLDY    68  66  93 E5        30.10S
$$

AZZ532-201100-
SOUTHWEST ARIZONA

CITY           SKY/WX    TMP DP  RH WIND       PRES   REMARKS
YUMA           MOCLDY    86  63  45 S6        29.86R
$$

CAZ041-043-047-048-061-525>527-560>570-201100-
SOUTHERN CALIFORNIA

CITY           SKY/WX    TMP DP  RH WIND       PRES   REMARKS
DOWNTOWN L.A.  CLEAR     69  63  81 CALM      29.96S
L.A. AIRPORT   PTCLDY    67  64  90 W3        29.97S
SAN DIEGO      MOCLDY    71  65  81 SW5       29.99S
BURBANK        CLEAR     71  61  70 SE6       29.98R
ONTARIO        PTCLDY    70  62  76 CALM      29.98F
RIVERSIDE      CLEAR     71  62  73 CALM      29.99S
PALM SPRINGS   PTCLDY    87  62  43 CALM      29.88R
EL CENTRO NAS  PTCLDY    83  63  50 E8        29.83F
IMPERIAL       PTCLDY    86  66  51 SE10      29.81F
BLYTHE         CLEAR     91  58  32 SW10      29.86S
NEEDLES        PTCLDY    89  69  51 SE5       29.88R
$$

NVZ020-UTZ003-201100-
SOUTHERN NEVADA-UTAH

CITY           SKY/WX    TMP DP  RH WIND       PRES   REMARKS
LAS VEGAS      MOCLDY    84  67  56 CALM      29.95S
SALT LAKE CITY PTCLDY    79  56  45 SE16      30.04R
$$

NMZ009-TXZ055-201100-
NEW MEXICO-WEST TEXAS

CITY           SKY/WX    TMP DP  RH WIND       PRES   REMARKS
ALBUQUERQUE    MOCLDY    69  53  56 E6        30.29S
EL PASO        PTCLDY    72  61  68 CALM      30.17S
$$


........................KEY........................
SKY/WX - SKY CONDITION/WEATHER
TMP    - TEMPERATURE IN FAHRENHEIT
DP     - DEW POINT IN FAHRENHEIT
RH     - RELATIVE HUMIDITY IN PERCENT
WIND   - DIRECTION AND SPEED IN MILES PER HOUR (MPH)
VRB    - VARIABLE WIND DIRECTION
PRES   - MEAN SEA LEVEL PRESSURE IN INCHES OF MERCURY
         F - FALLING PRESSURE   R - RISING PRESSURE
         S - STEADY PRESSURE
VSB    - VISIBILITY IN MILES
HX     - HEAT INDEX IN FAHRENHEIT
WCI    - WIND CHILL INDEX IN FAHRENHEIT
TC     - TEMPERATURE IN CELSIUS WHICH IS ALSO KNOWN AS
         TEMPERATURE IN CENTIGRADE
AFB    - AIR FORCE BASE
         LUKE AFB IS LUKE AIR FORCE BASE
         DAVIS-MONTHAN IS DAVIS-MONTHAN AIR FORCE BASE
NAS    - NAVAL AIR STATION
         EL CENTRO NAS IS EL CENTRO NAVAL AIR STATION
N/A    - NOT AVAILABLE





USA.gov is the U.S. government's official web portal to all federal, state and local government web resources and services.